When you browse on this site, cookies collect data to enhance your experience and personalize the content and advertising you see.
Visit our Privacy Policy to learn more. By continuing to use the site, you agree to this use of cookies and data.
  • In United Kingdom
  • List of Countries
  • For 7 days
  • Water Temperature
  • Weather Map
  • Weather Widgets
  • user-avatar
    Login

    Hourly Weather Glasgow

    Today, 14 December, Saturday

    Time Temperature Precipitation Wind Pressure Humidity
    00:00 +1°C° 0 mm 5 mps 725 mmHg 88%
    01:00 +1°C° 0 mm 5 mps 725 mmHg 86%
    02:00 +1°C° 0 mm 5 mps 725 mmHg 85%
    03:00 +1°C° 0 mm 5 mps 725 mmHg 83%
    04:00 0°C° 0 mm 5 mps 725 mmHg 83%
    05:00 0°C° 0 mm 4 mps 726 mmHg 83%
    06:00 0°C° 0 mm 4 mps 726 mmHg 83%
    07:00 0°C° 0 mm 4 mps 726 mmHg 83%
    08:00 0°C° 0 mm 4 mps 727 mmHg 83%
    09:00 0°C° 0 mm 4 mps 727 mmHg 84%
    10:00 +1°C° 0.1 mm 5 mps 727 mmHg 85%
    11:00 +1°C° 0.1 mm 5 mps 727 mmHg 86%
    12:00 +2°C° 0.1 mm 6 mps 728 mmHg 87%
    13:00 +2°C° 0 mm 7 mps 728 mmHg 84%
    14:00 +1°C° 0 mm 9 mps 728 mmHg 82%
    15:00 0°C° 0 mm 10 mps 728 mmHg 80%
    16:00 0°C° 0 mm 10 mps 728 mmHg 82%
    17:00 -2°C° 0 mm 10 mps 728 mmHg 83%
    18:00 -1°C° 0 mm 9 mps 728 mmHg 85%
    19:00 -1°C° 0.1 mm 9 mps 728 mmHg 88%
    20:00 -1°C° 0.1 mm 8 mps 728 mmHg 91%
    21:00 -1°C° 0.1 mm 7 mps 729 mmHg 95%
    22:00 -1°C° 0.4 mm 7 mps 729 mmHg 92%
    23:00 -1°C° 0.4 mm 6 mps 729 mmHg 89%

    Tomorrow, 15 December, Sunday

    Time Temperature Precipitation Wind Pressure Humidity
    00:00 -1°C° 0.4 mm 6 mps 729 mmHg 87%
    01:00 0°C° 0.1 mm 5 mps 729 mmHg 88%
    02:00 0°C° 0.1 mm 5 mps 729 mmHg 88%
    03:00 0°C° 0.1 mm 4 mps 730 mmHg 89%
    04:00 0°C° 0 mm 4 mps 730 mmHg 90%
    05:00 -1°C° 0 mm 4 mps 730 mmHg 91%
    06:00 -1°C° 0 mm 4 mps 731 mmHg 92%
    07:00 0°C° 0 mm 5 mps 732 mmHg 90%
    08:00 0°C° 0 mm 5 mps 733 mmHg 87%
    09:00 -1°C° 0 mm 6 mps 734 mmHg 85%
    10:00 -1°C° 0 mm 6 mps 735 mmHg 80%
    11:00 0°C° 0 mm 7 mps 735 mmHg 75%
    12:00 0°C° 0 mm 8 mps 736 mmHg 70%
    13:00 -1°C° 0 mm 7 mps 737 mmHg 73%
    14:00 -1°C° 0 mm 7 mps 737 mmHg 77%
    15:00 -2°C° 0 mm 6 mps 737 mmHg 80%
    16:00 -2°C° 0 mm 6 mps 737 mmHg 82%
    17:00 -2°C° 0 mm 6 mps 738 mmHg 84%
    18:00 -2°C° 0 mm 6 mps 738 mmHg 86%
    19:00 -1°C° 0 mm 6 mps 738 mmHg 88%
    20:00 -1°C° 0 mm 6 mps 738 mmHg 90%
    21:00 -1°C° 0 mm 6 mps 738 mmHg 92%
    22:00 -1°C° 0 mm 6 mps 738 mmHg 92%
    23:00 0°C° 0 mm 5 mps 738 mmHg 92%

    Day after tomorrow, 16 December, Monday

    Time Temperature Precipitation Wind Pressure Humidity
    00:00 -1°C° 0 mm 5 mps 738 mmHg 92%
    01:00 0°C° 0 mm 5 mps 738 mmHg 91%
    02:00 0°C° 0 mm 5 mps 738 mmHg 90%
    03:00 0°C° 0 mm 5 mps 737 mmHg 89%
    04:00 -1°C° 0.3 mm 6 mps 737 mmHg 90%
    05:00 +1°C° 0.3 mm 6 mps 737 mmHg 91%
    06:00 +1°C° 0.3 mm 6 mps 737 mmHg 92%
    07:00 +1°C° 0.2 mm 6 mps 737 mmHg 92%
    08:00 +1°C° 0.2 mm 6 mps 737 mmHg 93%
    09:00 +1°C° 0.2 mm 6 mps 737 mmHg 93%
    10:00 +1°C° 0.1 mm 6 mps 738 mmHg 91%
    11:00 +1°C° 0.1 mm 6 mps 738 mmHg 90%
    12:00 +1°C° 0.1 mm 6 mps 738 mmHg 89%
    13:00 +1°C° 0 mm 5 mps 738 mmHg 89%
    14:00 0°C° 0 mm 5 mps 738 mmHg 90%
    15:00 0°C° 0 mm 4 mps 739 mmHg 91%
    16:00 -1°C° 0.3 mm 4 mps 739 mmHg 92%
    17:00 -1°C° 0.3 mm 4 mps 739 mmHg 94%
    18:00 0°C° 0.3 mm 3 mps 739 mmHg 95%
    19:00 0°C° 0.3 mm 3 mps 740 mmHg 94%
    20:00 -1°C° 0.3 mm 4 mps 740 mmHg 93%
    21:00 -1°C° 0.3 mm 4 mps 741 mmHg 92%
    22:00 -1°C° 0.2 mm 4 mps 741 mmHg 91%
    23:00 -1°C° 0.2 mm 4 mps 741 mmHg 91%

    17 December, Tuesday

    Time Temperature Precipitation Wind Pressure Humidity
    00:00 -1°C° 0.2 mm 4 mps 742 mmHg 90%
    01:00 -1°C° 0 mm 5 mps 742 mmHg 87%
    02:00 -1°C° 0 mm 5 mps 742 mmHg 84%
    03:00 -1°C° 0 mm 5 mps 743 mmHg 82%
    04:00 -1°C° 0 mm 5 mps 743 mmHg 80%
    05:00 -1°C° 0 mm 5 mps 744 mmHg 79%
    06:00 -1°C° 0 mm 5 mps 744 mmHg 77%
    07:00 -1°C° 0 mm 5 mps 745 mmHg 75%
    08:00 -1°C° 0 mm 4 mps 745 mmHg 74%
    09:00 -1°C° 0 mm 4 mps 746 mmHg 72%
    10:00 -1°C° 0 mm 4 mps 746 mmHg 70%
    11:00 +1°C° 0 mm 3 mps 747 mmHg 68%
    12:00 +2°C° 0 mm 3 mps 747 mmHg 67%
    13:00 +2°C° 0 mm 3 mps 747 mmHg 68%
    14:00 +1°C° 0 mm 3 mps 747 mmHg 70%
    15:00 +2°C° 0 mm 2 mps 748 mmHg 72%
    16:00 +1°C° 0 mm 2 mps 748 mmHg 75%
    17:00 +1°C° 0 mm 2 mps 748 mmHg 78%
    18:00 +1°C° 0 mm 2 mps 749 mmHg 81%
    19:00 +1°C° 0 mm 2 mps 749 mmHg 81%
    20:00 +1°C° 0 mm 2 mps 750 mmHg 82%
    21:00 +1°C° 0 mm 2 mps 750 mmHg 82%
    22:00 +1°C° 0 mm 2 mps 750 mmHg 81%
    23:00 +1°C° 0 mm 2 mps 751 mmHg 81%

    18 December, Wednesday

    Time Temperature Precipitation Wind Pressure Humidity
    00:00 +1°C° 0 mm 2 mps 751 mmHg 81%
    01:00 +1°C° 0 mm 2 mps 751 mmHg 80%
    02:00 +1°C° 0 mm 2 mps 751 mmHg 79%
    03:00 -1°C° 0 mm 2 mps 752 mmHg 79%
    04:00 +1°C° 0 mm 1 mps 752 mmHg 79%
    05:00 +1°C° 0 mm 1 mps 752 mmHg 78%
    06:00 +1°C° 0 mm 1 mps 752 mmHg 78%
    07:00 +1°C° 0 mm 1 mps 753 mmHg 78%
    08:00 +1°C° 0 mm 1 mps 753 mmHg 78%
    09:00 +1°C° 0 mm 1 mps 753 mmHg 77%
    10:00 +2°C° 0 mm 1 mps 754 mmHg 76%
    11:00 +1°C° 0 mm 2 mps 754 mmHg 74%
    12:00 +2°C° 0 mm 2 mps 754 mmHg 72%
    13:00 +2°C° 0 mm 2 mps 754 mmHg 75%
    14:00 0°C° 0 mm 3 mps 754 mmHg 78%
    15:00 0°C° 0 mm 3 mps 754 mmHg 81%
    16:00 -1°C° 0 mm 3 mps 754 mmHg 84%
    17:00 -1°C° 0 mm 3 mps 754 mmHg 86%
    18:00 -1°C° 0 mm 3 mps 754 mmHg 89%
    19:00 -1°C° 0 mm 3 mps 755 mmHg 90%
    20:00 -2°C° 0 mm 4 mps 755 mmHg 90%
    21:00 -2°C° 0 mm 4 mps 755 mmHg 91%
    22:00 -2°C° 0 mm 4 mps 755 mmHg 91%
    23:00 -2°C° 0 mm 4 mps 754 mmHg 91%

    19 December, Thursday

    Time Temperature Precipitation Wind Pressure Humidity
    00:00 -1°C° 0 mm 4 mps 754 mmHg 91%
    01:00 -1°C° 0 mm 4 mps 754 mmHg 92%
    02:00 -1°C° 0 mm 4 mps 754 mmHg 92%
    03:00 0°C° 0 mm 4 mps 753 mmHg 92%
    04:00 0°C° 0 mm 5 mps 753 mmHg 92%
    05:00 +1°C° 0 mm 5 mps 753 mmHg 91%
    06:00 +1°C° 0 mm 6 mps 753 mmHg 91%
    07:00 +2°C° 0 mm 6 mps 753 mmHg 89%
    08:00 +2°C° 0 mm 7 mps 752 mmHg 88%
    09:00 +3°C° 0 mm 7 mps 752 mmHg 87%
    10:00 +2°C° 0 mm 8 mps 752 mmHg 86%
    11:00 +2°C° 0 mm 9 mps 752 mmHg 84%
    12:00 +3°C° 0 mm 9 mps 751 mmHg 83%
    13:00 +3°C° 0 mm 9 mps 751 mmHg 83%
    14:00 +3°C° 0 mm 10 mps 750 mmHg 82%
    15:00 +2°C° 0 mm 10 mps 749 mmHg 81%
    16:00 +2°C° 0.1 mm 10 mps 749 mmHg 82%
    17:00 +3°C° 0.1 mm 10 mps 749 mmHg 83%
    18:00 +3°C° 0.1 mm 11 mps 748 mmHg 84%
    19:00 +3°C° 0.4 mm 11 mps 748 mmHg 87%
    20:00 +3°C° 0.4 mm 11 mps 747 mmHg 90%
    21:00 +3°C° 0.4 mm 12 mps 747 mmHg 94%
    22:00 +3°C° 1.2 mm 11 mps 746 mmHg 94%
    23:00 +4°C° 1.2 mm 11 mps 745 mmHg 95%
    Show more